| time (UTC) | temp F | wind direction | speed MPH | gust MPH | rain 1hr in | rain 24hr in | rain mn in | humidity % | barometer mb |
| 20260510174805 | 56 | 59 | 3.0 | 8.0 | 0.00 | 0.00 | 0.00 | 54 | 1014.6 |
| 20260510174305 | 56 | 60 | 3.0 | 8.0 | 0.00 | 0.00 | 0.00 | 54 | 1014.6 |
| 20260510173804 | 56 | 53 | 3.0 | 10.0 | 0.00 | 0.00 | 0.00 | 54 | 1014.6 |
| 20260510173305 | 56 | 51 | 5.0 | 10.0 | 0.00 | 0.00 | 0.00 | 54 | 1014.7 |
| 20260510172306 | 56 | 58 | 5.0 | 12.0 | 0.00 | 0.00 | 0.00 | 54 | 1014.8 |
| 20260510171805 | 57 | 34 | 2.0 | 6.0 | 0.00 | 0.00 | 0.00 | 55 | 1014.8 |
| 20260510171305 | 57 | 40 | 3.0 | 10.0 | 0.00 | 0.00 | 0.00 | 56 | 1014.8 |
| 20260510170805 | 56 | 58 | 2.0 | 5.0 | 0.00 | 0.00 | 0.00 | 55 | 1014.9 |
| 20260510170305 | 56 | 61 | 2.0 | 10.0 | 0.00 | 0.00 | 0.00 | 54 | 1014.9 |
| 20260510165306 | 57 | 49 | 3.0 | 6.0 | 0.00 | 0.00 | 0.00 | 55 | 1014.9 |
| 20260510164805 | 57 | 58 | 6.0 | 13.0 | 0.00 | 0.00 | 0.00 | 54 | 1014.9 |
| 20260510164304 | 57 | 82 | 3.0 | 9.0 | 0.00 | 0.00 | 0.00 | 56 | 1015.0 |
| 20260510163805 | 57 | 46 | 3.0 | 12.0 | 0.00 | 0.00 | 0.00 | 56 | 1015.1 |
| 20260510163305 | 57 | 37 | 5.0 | 9.0 | 0.00 | 0.00 | 0.00 | 55 | 1015.1 |
| 20260510162805 | 57 | 50 | 3.0 | 14.0 | 0.00 | 0.00 | 0.00 | 56 | 1015.1 |
| 20260510162306 | 56 | 48 | 3.0 | 10.0 | 0.00 | 0.00 | 0.00 | 57 | 1015.2 |
| 20260510161805 | 56 | 57 | 4.0 | 10.0 | 0.00 | 0.00 | 0.00 | 57 | 1015.3 |
| 20260510161304 | 56 | 36 | 3.0 | 10.0 | 0.00 | 0.00 | 0.00 | 58 | 1015.4 |
| 20260510160304 | 57 | 42 | 3.0 | 6.0 | 0.00 | 0.00 | 0.00 | 59 | 1015.5 |
| 20260510155805 | 56 | 47 | 4.0 | 10.0 | 0.00 | 0.00 | 0.00 | 58 | 1015.5 |
| 20260510154805 | 56 | 74 | 4.0 | 13.0 | 0.00 | 0.00 | 0.00 | 58 | 1015.6 |
| 20260510154305 | 56 | 42 | 2.0 | 6.0 | 0.00 | 0.00 | 0.00 | 58 | 1015.7 |
| 20260510153805 | 56 | 46 | 5.0 | 9.0 | 0.00 | 0.00 | 0.00 | 60 | 1015.7 |
| 20260510153305 | 56 | 20 | 2.0 | 12.0 | 0.00 | 0.00 | 0.00 | 61 | 1015.7 |
| 20260510152805 | 56 | 26 | 3.0 | 8.0 | 0.00 | 0.00 | 0.00 | 60 | 1015.7 |
| 20260510152307 | 56 | 22 | 4.0 | 13.0 | 0.00 | 0.00 | 0.00 | 59 | 1015.8 |
| 20260510151805 | 56 | 49 | 5.0 | 13.0 | 0.00 | 0.00 | 0.00 | 60 | 1015.9 |
| 20260510151305 | 56 | 84 | 3.0 | 8.0 | 0.00 | 0.00 | 0.00 | 61 | 1015.9 |
| 20260510150805 | 56 | 43 | 2.0 | 6.0 | 0.00 | 0.00 | 0.00 | 62 | 1016.0 |
| 20260510150305 | 55 | 65 | 3.0 | 7.0 | 0.00 | 0.00 | 0.00 | 62 | 1016.1 |
| 20260510145805 | 55 | 61 | 3.0 | 9.0 | 0.00 | 0.00 | 0.00 | 62 | 1016.2 |
| 20260510145306 | 55 | 21 | 4.0 | 8.0 | 0.00 | 0.00 | 0.00 | 62 | 1016.2 |
| 20260510144804 | 55 | 43 | 3.0 | 8.0 | 0.00 | 0.00 | 0.00 | 62 | 1016.3 |
| 20260510144304 | 55 | 35 | 3.0 | 8.0 | 0.00 | 0.00 | 0.00 | 62 | 1016.4 |
| 20260510143805 | 55 | 66 | 5.0 | 10.0 | 0.00 | 0.00 | 0.00 | 63 | 1016.5 |
| 20260510142804 | 55 | 32 | 3.0 | 9.0 | 0.00 | 0.00 | 0.00 | 63 | 1016.6 |
| 20260510141804 | 55 | 71 | 5.0 | 10.0 | 0.00 | 0.00 | 0.00 | 63 | 1016.7 |
| 20260510141304 | 55 | 70 | 5.0 | 10.0 | 0.00 | 0.00 | 0.00 | 64 | 1016.8 |
| 20260510140808 | 54 | 42 | 5.0 | 9.0 | 0.00 | 0.00 | 0.00 | 64 | 1016.9 |
| 20260510135804 | 54 | 44 | 4.0 | 12.0 | 0.00 | 0.00 | 0.00 | 65 | 1016.9 |
| 20260510135306 | 54 | 54 | 4.0 | 9.0 | 0.00 | 0.00 | 0.00 | 65 | 1016.9 |
| 20260510134804 | 54 | 44 | 5.0 | 9.0 | 0.00 | 0.00 | 0.00 | 64 | 1016.9 |
| 20260510134305 | 54 | 45 | 6.0 | 14.0 | 0.00 | 0.00 | 0.00 | 66 | 1016.9 |
| 20260510133804 | 54 | 65 | 5.0 | 10.0 | 0.00 | 0.00 | 0.00 | 66 | 1016.9 |
| 20260510133304 | 54 | 66 | 5.0 | 10.0 | 0.00 | 0.00 | 0.00 | 65 | 1016.9 |
| 20260510132805 | 55 | 59 | 5.0 | 10.0 | 0.00 | 0.00 | 0.00 | 66 | 1016.9 |
| 20260510131805 | 54 | 53 | 4.0 | 12.0 | 0.00 | 0.00 | 0.00 | 66 | 1016.9 |
| 20260510131305 | 54 | 69 | 5.0 | 13.0 | 0.00 | 0.00 | 0.00 | 66 | 1017.0 |
| 20260510130804 | 54 | 68 | 6.0 | 12.0 | 0.00 | 0.00 | 0.00 | 67 | 1017.1 |
| 20260510130305 | 54 | 71 | 6.0 | 13.0 | 0.00 | 0.00 | 0.00 | 67 | 1017.1 |
| 20260510125804 | 54 | 50 | 4.0 | 12.0 | 0.00 | 0.00 | 0.00 | 68 | 1017.1 |
| 20260510125308 | 54 | 57 | 4.0 | 13.0 | 0.00 | 0.00 | 0.00 | 68 | 1017.1 |
| 20260510124805 | 54 | 67 | 5.0 | 10.0 | 0.00 | 0.00 | 0.00 | 68 | 1017.2 |
| 20260510124306 | 54 | 64 | 4.0 | 12.0 | 0.00 | 0.00 | 0.00 | 69 | 1017.3 |
| 20260510123805 | 54 | 31 | 4.0 | 10.0 | 0.00 | 0.00 | 0.00 | 69 | 1017.3 |
| 20260510123305 | 54 | 39 | 3.0 | 9.0 | 0.00 | 0.00 | 0.00 | 69 | 1017.4 |
| 20260510122804 | 54 | 81 | 5.0 | 10.0 | 0.00 | 0.00 | 0.00 | 70 | 1017.3 |
| 20260510122306 | 54 | 54 | 5.0 | 13.0 | 0.00 | 0.00 | 0.00 | 69 | 1017.4 |
| 20260510121806 | 54 | 23 | 4.0 | 9.0 | 0.00 | 0.00 | 0.00 | 70 | 1017.4 |
| 20260510121305 | 54 | 74 | 3.0 | 8.0 | 0.00 | 0.00 | 0.00 | 70 | 1017.5 |
| 20260510120805 | 54 | 58 | 5.0 | 13.0 | 0.00 | 0.00 | 0.00 | 69 | 1017.5 |
| 20260510120305 | 54 | 53 | 5.0 | 10.0 | 0.00 | 0.00 | 0.00 | 69 | 1017.6 |
| 20260510115805 | 54 | 48 | 5.0 | 10.0 | 0.00 | 0.00 | 0.00 | 70 | 1017.5 |
| 20260510114805 | 54 | 58 | 6.0 | 15.0 | 0.00 | 0.00 | 0.00 | 68 | 1017.6 |
| 20260510114304 | 54 | 54 | 6.0 | 13.0 | 0.00 | 0.00 | 0.00 | 68 | 1017.7 |
| 20260510113305 | 53 | 15 | 6.0 | 15.0 | 0.00 | 0.00 | 0.00 | 72 | 1017.9 |
| 20260510112805 | 53 | 52 | 5.0 | 12.0 | 0.00 | 0.00 | 0.00 | 72 | 1017.9 |
| 20260510112306 | 53 | 50 | 5.0 | 10.0 | 0.00 | 0.00 | 0.00 | 72 | 1018.0 |
| 20260510111814 | 53 | 55 | 3.0 | 13.0 | 0.00 | 0.00 | 0.00 | 74 | 1018.0 |
| 20260510111307 | 52 | 20 | 6.0 | 13.0 | 0.00 | 0.00 | 0.00 | 73 | 1018.0 |
| 20260510110305 | 53 | 61 | 6.0 | 14.0 | 0.00 | 0.00 | 0.00 | 73 | 1018.0 |
| 20260510105805 | 53 | 29 | 3.0 | 13.0 | 0.00 | 0.00 | 0.00 | 73 | 1018.1 |
| 20260510105306 | 52 | 80 | 5.0 | 10.0 | 0.00 | 0.00 | 0.00 | 75 | 1018.1 |
| 20260510104805 | 52 | 45 | 7.0 | 13.0 | 0.00 | 0.00 | 0.00 | 74 | 1018.2 |
| 20260510104305 | 52 | 48 | 5.0 | 13.0 | 0.00 | 0.00 | 0.00 | 74 | 1018.3 |
| 20260510103805 | 52 | 50 | 5.0 | 14.0 | 0.00 | 0.00 | 0.00 | 74 | 1018.3 |
| 20260510103304 | 52 | 47 | 7.0 | 12.0 | 0.00 | 0.00 | 0.00 | 74 | 1018.3 |
| 20260510102805 | 52 | 31 | 4.0 | 13.0 | 0.00 | 0.00 | 0.00 | 75 | 1018.3 |
| 20260510102306 | 51 | 39 | 6.0 | 10.0 | 0.00 | 0.00 | 0.00 | 76 | 1018.4 |
| 20260510101805 | 51 | 23 | 6.0 | 14.0 | 0.00 | 0.00 | 0.00 | 76 | 1018.4 |
| 20260510101305 | 51 | 68 | 7.0 | 13.0 | 0.00 | 0.00 | 0.00 | 77 | 1018.4 |
| 20260510100805 | 51 | 38 | 5.0 | 13.0 | 0.00 | 0.00 | 0.00 | 77 | 1018.3 |
| 20260510095805 | 51 | 35 | 3.0 | 13.0 | 0.00 | 0.00 | 0.00 | 78 | 1018.3 |
| 20260510095306 | 51 | 34 | 5.0 | 10.0 | 0.00 | 0.00 | 0.00 | 78 | 1018.4 |
| 20260510094805 | 51 | 17 | 6.0 | 14.0 | 0.00 | 0.00 | 0.00 | 78 | 1018.4 |
| 20260510094305 | 51 | 44 | 6.0 | 14.0 | 0.00 | 0.00 | 0.00 | 77 | 1018.4 |
| 20260510093805 | 51 | 27 | 5.0 | 12.0 | 0.00 | 0.00 | 0.00 | 78 | 1018.4 |
| 20260510093305 | 51 | 18 | 4.0 | 12.0 | 0.00 | 0.00 | 0.00 | 77 | 1018.5 |
| 20260510092805 | 51 | 12 | 5.0 | 10.0 | 0.00 | 0.00 | 0.00 | 77 | 1018.4 |
| 20260510092307 | 51 | 28 | 5.0 | 14.0 | 0.00 | 0.00 | 0.00 | 77 | 1018.4 |
| 20260510091805 | 51 | 5 | 6.0 | 12.0 | 0.00 | 0.00 | 0.00 | 77 | 1018.4 |
| 20260510090805 | 51 | 20 | 6.0 | 10.0 | 0.00 | 0.00 | 0.00 | 77 | 1018.4 |
| 20260510090305 | 51 | 35 | 5.0 | 17.0 | 0.00 | 0.00 | 0.00 | 77 | 1018.4 |
| 20260510085804 | 51 | 8 | 5.0 | 14.0 | 0.00 | 0.00 | 0.00 | 76 | 1018.5 |
| 20260510085306 | 52 | 53 | 5.0 | 9.0 | 0.00 | 0.00 | 0.00 | 76 | 1018.6 |
| 20260510084805 | 52 | 28 | 3.0 | 10.0 | 0.00 | 0.00 | 0.00 | 77 | 1018.6 |
| 20260510084305 | 52 | 56 | 3.0 | 7.0 | 0.00 | 0.00 | 0.00 | 75 | 1018.6 |
| 20260510083805 | 52 | 70 | 3.0 | 12.0 | 0.00 | 0.00 | 0.00 | 75 | 1018.6 |
| 20260510083304 | 52 | 65 | 6.0 | 13.0 | 0.00 | 0.00 | 0.00 | 74 | 1018.5 |
| 20260510082804 | 52 | 54 | 5.0 | 12.0 | 0.00 | 0.00 | 0.00 | 75 | 1018.5 |
| 20260510082306 | 52 | 56 | 5.0 | 15.0 | 0.00 | 0.00 | 0.00 | 75 | 1018.5 |
| 20260510081805 | 52 | 65 | 6.0 | 15.0 | 0.00 | 0.00 | 0.00 | 74 | 1018.5 |
| 20260510081305 | 52 | 51 | 6.0 | 13.0 | 0.00 | 0.00 | 0.00 | 74 | 1018.5 |
| 20260510080805 | 52 | 63 | 6.0 | 12.0 | 0.00 | 0.00 | 0.00 | 75 | 1018.5 |
| 20260510080305 | 52 | 25 | 7.0 | 14.0 | 0.00 | 0.00 | 0.00 | 77 | 1018.5 |
| 20260510075805 | 52 | 38 | 5.0 | 9.0 | 0.00 | 0.00 | 0.00 | 78 | 1018.6 |
| 20260510075306 | 52 | 43 | 5.0 | 12.0 | 0.00 | 0.00 | 0.00 | 78 | 1018.5 |
| 20260510074305 | 52 | 53 | 3.0 | 9.0 | 0.00 | 0.00 | 0.00 | 78 | 1018.5 |
| 20260510073305 | 52 | 36 | 5.0 | 14.0 | 0.00 | 0.00 | 0.00 | 78 | 1018.5 |
| 20260510072805 | 52 | 60 | 4.0 | 10.0 | 0.00 | 0.00 | 0.00 | 78 | 1018.5 |
| 20260510072306 | 52 | 44 | 5.0 | 16.0 | 0.00 | 0.00 | 0.00 | 78 | 1018.5 |
| 20260510071804 | 51 | 22 | 6.0 | 13.0 | 0.00 | 0.00 | 0.00 | 78 | 1018.5 |
| 20260510071305 | 51 | 27 | 5.0 | 12.0 | 0.00 | 0.00 | 0.00 | 78 | 1018.5 |
| 20260510070804 | 51 | 34 | 5.0 | 14.0 | 0.00 | 0.00 | 0.00 | 78 | 1018.4 |
| 20260510065805 | 51 | 44 | 3.0 | 7.0 | 0.00 | 0.00 | 0.00 | 78 | 1018.3 |
| 20260510064804 | 51 | 21 | 3.0 | 12.0 | 0.00 | 0.00 | 0.00 | 78 | 1018.4 |
| 20260510064305 | 51 | 43 | 5.0 | 13.0 | 0.00 | 0.00 | 0.00 | 79 | 1018.4 |
| 20260510063805 | 50 | 22 | 4.0 | 9.0 | 0.00 | 0.00 | 0.00 | 80 | 1018.4 |
| 20260510063305 | 50 | 59 | 3.0 | 9.0 | 0.00 | 0.00 | 0.00 | 81 | 1018.3 |
| 20260510062805 | 49 | 68 | 5.0 | 12.0 | 0.00 | 0.00 | 0.00 | 82 | 1018.3 |
| 20260510061804 | 49 | 41 | 3.0 | 10.0 | 0.00 | 0.00 | 0.00 | 83 | 1018.3 |
| 20260510061305 | 49 | 53 | 4.0 | 8.0 | 0.00 | 0.00 | 0.00 | 84 | 1018.4 |
| 20260510060805 | 49 | 52 | 3.0 | 8.0 | 0.00 | 0.00 | 0.00 | 84 | 1018.4 |
| 20260510060304 | 49 | 58 | 2.0 | 6.0 | 0.00 | 0.00 | 0.00 | 84 | 1018.4 |
| 20260510055804 | 48 | 67 | 3.0 | 10.0 | 0.00 | 0.00 | 0.00 | 84 | 1018.3 |
| 20260510055306 | 48 | 66 | 2.0 | 8.0 | 0.00 | 0.00 | 0.00 | 84 | 1018.3 |
| 20260510054805 | 48 | 52 | 2.0 | 6.0 | 0.00 | 0.00 | 0.00 | 84 | 1018.2 |
| 20260510053805 | 48 | 24 | 3.0 | 8.0 | 0.00 | 0.00 | 0.00 | 84 | 1018.3 |
| 20260510052804 | 47 | 355 | 2.0 | 5.0 | 0.00 | 0.00 | 0.00 | 84 | 1018.3 |
| 20260510051304 | 47 | 36 | 2.0 | 6.0 | 0.00 | 0.00 | 0.00 | 84 | 1018.3 |
| 20260510050804 | 47 | 37 | 3.0 | 6.0 | 0.00 | 0.00 | 0.00 | 84 | 1018.3 |
| 20260510050305 | 47 | 34 | 3.0 | 7.0 | 0.00 | 0.00 | 0.00 | 84 | 1018.3 |
| 20260510045804 | 47 | 37 | 3.0 | 7.0 | 0.00 | 0.00 | 0.00 | 83 | 1018.2 |
| 20260510045306 | 47 | 33 | 2.0 | 8.0 | 0.00 | 0.00 | 0.00 | 84 | 1018.2 |
| 20260510044805 | 47 | 49 | 3.0 | 9.0 | 0.00 | 0.00 | 0.00 | 84 | 1018.3 |
| 20260510044305 | 47 | 53 | 3.0 | 8.0 | 0.00 | 0.00 | 0.00 | 83 | 1018.3 |
| 20260510043805 | 47 | 35 | 3.0 | 6.0 | 0.00 | 0.00 | 0.00 | 83 | 1018.4 |
| 20260510043305 | 47 | 48 | 2.0 | 8.0 | 0.00 | 0.00 | 0.00 | 83 | 1018.4 |
| 20260510042804 | 47 | 62 | 3.0 | 6.0 | 0.00 | 0.00 | 0.00 | 83 | 1018.3 |
| 20260510041805 | 47 | 36 | 3.0 | 7.0 | 0.00 | 0.00 | 0.00 | 83 | 1018.5 |
| 20260510041304 | 47 | 48 | 3.0 | 6.0 | 0.00 | 0.00 | 0.00 | 83 | 1018.5 |
| 20260510040804 | 47 | 42 | 2.0 | 7.0 | 0.00 | 0.00 | 0.00 | 82 | 1018.5 |
| 20260510035804 | 47 | 22 | 2.0 | 6.0 | 0.00 | 0.00 | 0.00 | 82 | 1018.6 |
| 20260510035306 | 47 | 36 | 3.0 | 6.0 | 0.00 | 0.00 | 0.00 | 82 | 1018.6 |
| 20260510034804 | 47 | 47 | 1.0 | 6.0 | 0.00 | 0.00 | 0.00 | 82 | 1018.6 |
| 20260510034304 | 47 | 42 | 3.0 | 9.0 | 0.00 | 0.00 | 0.00 | 82 | 1018.6 |
| 20260510033804 | 47 | 47 | 3.0 | 7.0 | 0.00 | 0.00 | 0.00 | 82 | 1018.6 |
| 20260510032805 | 48 | 38 | 5.0 | 13.0 | 0.00 | 0.00 | 0.00 | 82 | 1018.7 |
| 20260510032306 | 48 | 28 | 4.0 | 10.0 | 0.00 | 0.00 | 0.00 | 82 | 1018.7 |
| 20260510031804 | 48 | 26 | 3.0 | 8.0 | 0.00 | 0.00 | 0.00 | 82 | 1018.7 |
| 20260510031305 | 48 | 59 | 3.0 | 12.0 | 0.00 | 0.00 | 0.00 | 82 | 1018.7 |
| 20260510030804 | 48 | 26 | 5.0 | 10.0 | 0.00 | 0.00 | 0.00 | 82 | 1018.8 |
| 20260510030304 | 48 | 45 | 3.0 | 9.0 | 0.00 | 0.00 | 0.00 | 82 | 1018.7 |
| 20260510025804 | 48 | 44 | 5.0 | 9.0 | 0.00 | 0.00 | 0.00 | 82 | 1018.6 |
| 20260510025306 | 48 | 50 | 3.0 | 8.0 | 0.00 | 0.00 | 0.00 | 82 | 1018.6 |
| 20260510024804 | 48 | 33 | 3.0 | 9.0 | 0.00 | 0.00 | 0.00 | 82 | 1018.6 |
| 20260510024305 | 48 | 29 | 4.0 | 6.0 | 0.00 | 0.00 | 0.00 | 82 | 1018.6 |
| 20260510023804 | 48 | 42 | 5.0 | 10.0 | 0.00 | 0.00 | 0.00 | 82 | 1018.6 |
| 20260510023304 | 48 | 19 | 2.0 | 6.0 | 0.00 | 0.00 | 0.00 | 82 | 1018.7 |
| 20260510022805 | 49 | 30 | 4.0 | 12.0 | 0.00 | 0.00 | 0.00 | 82 | 1018.7 |
| 20260510022306 | 49 | 55 | 5.0 | 12.0 | 0.00 | 0.00 | 0.00 | 82 | 1018.7 |
| 20260510021304 | 49 | 36 | 4.0 | 13.0 | 0.00 | 0.00 | 0.00 | 82 | 1018.6 |
| 20260510020305 | 49 | 12 | 5.0 | 13.0 | 0.00 | 0.00 | 0.00 | 82 | 1018.6 |
| 20260510015804 | 49 | 38 | 3.0 | 12.0 | 0.00 | 0.00 | 0.00 | 82 | 1018.5 |
| 20260510015306 | 49 | 32 | 5.0 | 12.0 | 0.00 | 0.00 | 0.00 | 82 | 1018.6 |
| 20260510014806 | 49 | 37 | 4.0 | 10.0 | 0.00 | 0.00 | 0.00 | 82 | 1018.5 |
| 20260510014304 | 49 | 7 | 5.0 | 12.0 | 0.00 | 0.00 | 0.00 | 82 | 1018.5 |
| 20260510013804 | 49 | 49 | 5.0 | 14.0 | 0.00 | 0.00 | 0.00 | 83 | 1018.5 |
| 20260510013305 | 49 | 42 | 6.0 | 14.0 | 0.00 | 0.00 | 0.00 | 83 | 1018.5 |
| 20260510012306 | 49 | 35 | 3.0 | 10.0 | 0.00 | 0.00 | 0.00 | 82 | 1018.5 |
| 20260510011804 | 50 | 51 | 5.0 | 9.0 | 0.00 | 0.00 | 0.00 | 82 | 1018.6 |
| 20260510011305 | 50 | 4 | 4.0 | 12.0 | 0.00 | 0.00 | 0.00 | 82 | 1018.5 |
| 20260510010805 | 50 | 49 | 4.0 | 12.0 | 0.00 | 0.00 | 0.00 | 82 | 1018.6 |
| 20260510010305 | 50 | 20 | 5.0 | 10.0 | 0.00 | 0.00 | 0.00 | 82 | 1018.6 |
| 20260510005805 | 50 | 32 | 3.0 | 10.0 | 0.00 | 0.00 | 0.00 | 82 | 1018.7 |
| 20260510005306 | 50 | 32 | 3.0 | 13.0 | 0.00 | 0.00 | 0.00 | 82 | 1018.7 |
| 20260510004805 | 51 | 28 | 3.0 | 8.0 | 0.00 | 0.00 | 0.00 | 82 | 1018.7 |
| 20260510004304 | 51 | 37 | 4.0 | 9.0 | 0.00 | 0.00 | 0.00 | 82 | 1018.7 |
| 20260510003305 | 51 | 59 | 3.0 | 10.0 | 0.00 | 0.00 | 0.00 | 82 | 1018.8 |
| 20260510001805 | 51 | 22 | 5.0 | 13.0 | 0.00 | 0.00 | 0.00 | 81 | 1018.6 |
| 20260510000805 | 52 | 23 | 4.0 | 9.0 | 0.00 | 0.00 | 0.00 | 81 | 1018.6 |
| 20260509235804 | 52 | 17 | 3.0 | 14.0 | 0.00 | 0.00 | 0.00 | 80 | 1018.3 |
| 20260509235307 | 52 | 45 | 5.0 | 12.0 | 0.00 | 0.00 | 0.00 | 80 | 1018.2 |
| 20260509234804 | 52 | 34 | 5.0 | 10.0 | 0.00 | 0.00 | 0.00 | 80 | 1018.2 |
| 20260509234304 | 52 | 21 | 5.0 | 14.0 | 0.00 | 0.00 | 0.00 | 80 | 1018.2 |
| 20260509233804 | 52 | 24 | 5.0 | 9.0 | 0.00 | 0.00 | 0.00 | 79 | 1018.0 |
| 20260509233304 | 52 | 13 | 5.0 | 10.0 | 0.00 | 0.00 | 0.00 | 79 | 1018.0 |
| 20260509232805 | 53 | 22 | 5.0 | 13.0 | 0.00 | 0.00 | 0.00 | 79 | 1018.1 |
| 20260509232306 | 53 | 21 | 5.0 | 9.0 | 0.00 | 0.00 | 0.00 | 79 | 1018.2 |
| 20260509231805 | 53 | 45 | 6.0 | 15.0 | 0.00 | 0.00 | 0.00 | 79 | 1018.1 |
| 20260509231304 | 53 | 16 | 5.0 | 13.0 | 0.00 | 0.00 | 0.00 | 79 | 1018.1 |
| 20260509230816 | 53 | 22 | 2.0 | 12.0 | 0.00 | 0.00 | 0.00 | 79 | 1018.0 |
| 20260509230305 | 53 | 44 | 4.0 | 14.0 | 0.00 | 0.00 | 0.00 | 79 | 1017.9 |
| 20260509225805 | 54 | 28 | 7.0 | 13.0 | 0.00 | 0.00 | 0.00 | 79 | 1018.0 |
| 20260509225306 | 54 | 51 | 6.0 | 16.0 | 0.00 | 0.00 | 0.00 | 79 | 1018.0 |
| 20260509224804 | 54 | 42 | 6.0 | 14.0 | 0.00 | 0.00 | 0.00 | 79 | 1018.0 |
| 20260509224304 | 54 | 39 | 3.0 | 9.0 | 0.00 | 0.00 | 0.00 | 79 | 1017.9 |
| 20260509223804 | 54 | 43 | 3.0 | 12.0 | 0.00 | 0.00 | 0.00 | 78 | 1017.9 |
| 20260509223305 | 55 | 24 | 5.0 | 10.0 | 0.00 | 0.00 | 0.00 | 78 | 1018.0 |
| 20260509222804 | 55 | 28 | 4.0 | 12.0 | 0.00 | 0.00 | 0.00 | 78 | 1017.9 |
| 20260509222307 | 55 | 37 | 5.0 | 13.0 | 0.00 | 0.00 | 0.00 | 78 | 1018.0 |
| 20260509221804 | 55 | 29 | 5.0 | 15.0 | 0.00 | 0.00 | 0.00 | 77 | 1018.0 |
| 20260509221304 | 55 | 34 | 5.0 | 12.0 | 0.00 | 0.00 | 0.00 | 77 | 1018.0 |
| 20260509220804 | 55 | 37 | 5.0 | 13.0 | 0.00 | 0.00 | 0.00 | 77 | 1018.0 |
| 20260509220305 | 56 | 34 | 6.0 | 13.0 | 0.00 | 0.00 | 0.00 | 76 | 1017.9 |
| 20260509215804 | 56 | 354 | 5.0 | 12.0 | 0.00 | 0.00 | 0.00 | 76 | 1017.9 |
| 20260509215306 | 56 | 28 | 6.0 | 13.0 | 0.00 | 0.00 | 0.00 | 76 | 1017.9 |
| 20260509214804 | 56 | 36 | 6.0 | 13.0 | 0.00 | 0.00 | 0.00 | 76 | 1017.9 |
| 20260509214305 | 57 | 20 | 6.0 | 13.0 | 0.00 | 0.00 | 0.00 | 75 | 1017.9 |
| 20260509213805 | 57 | 33 | 5.0 | 15.0 | 0.00 | 0.00 | 0.00 | 75 | 1017.9 |
| 20260509213304 | 57 | 18 | 6.0 | 13.0 | 0.00 | 0.00 | 0.00 | 74 | 1017.8 |
| 20260509212306 | 57 | 14 | 4.0 | 12.0 | 0.00 | 0.00 | 0.00 | 73 | 1017.7 |
| 20260509211805 | 58 | 26 | 6.0 | 14.0 | 0.00 | 0.00 | 0.00 | 73 | 1017.6 |
| 20260509210804 | 58 | 9 | 5.0 | 15.0 | 0.00 | 0.00 | 0.00 | 72 | 1017.4 |
| 20260509210304 | 58 | 48 | 5.0 | 20.0 | 0.00 | 0.00 | 0.00 | 72 | 1017.4 |
| 20260509205805 | 58 | 10 | 6.0 | 17.0 | 0.00 | 0.00 | 0.00 | 72 | 1017.4 |
| 20260509205307 | 59 | 13 | 6.0 | 15.0 | 0.00 | 0.00 | 0.00 | 72 | 1017.3 |
| 20260509204304 | 59 | 24 | 3.0 | 10.0 | 0.00 | 0.00 | 0.00 | 72 | 1017.3 |
| 20260509203805 | 59 | 359 | 5.0 | 9.0 | 0.00 | 0.00 | 0.00 | 71 | 1017.3 |
| 20260509203305 | 59 | 345 | 6.0 | 14.0 | 0.00 | 0.00 | 0.00 | 71 | 1017.2 |
| 20260509202805 | 59 | 312 | 4.0 | 9.0 | 0.00 | 0.00 | 0.00 | 70 | 1017.2 |
| 20260509202306 | 60 | 348 | 3.0 | 13.0 | 0.00 | 0.00 | 0.00 | 70 | 1017.3 |
| 20260509200805 | 61 | 7 | 4.0 | 9.0 | 0.00 | 0.00 | 0.00 | 68 | 1017.1 |
| 20260509195804 | 61 | 337 | 4.0 | 10.0 | 0.00 | 0.00 | 0.00 | 65 | 1017.0 |
| 20260509195306 | 62 | 11 | 5.0 | 13.0 | 0.00 | 0.00 | 0.00 | 62 | 1017.0 |
| 20260509194804 | 62 | 10 | 4.0 | 9.0 | 0.00 | 0.00 | 0.00 | 56 | 1016.9 |
| 20260509194305 | 62 | 358 | 2.0 | 6.0 | 0.00 | 0.00 | 0.00 | 55 | 1016.8 |
| 20260509193805 | 62 | 354 | 2.0 | 6.0 | 0.00 | 0.00 | 0.00 | 55 | 1016.7 |
| 20260509192804 | 63 | 8 | 2.0 | 6.0 | 0.00 | 0.00 | 0.00 | 54 | 1016.6 |
| 20260509192306 | 63 | 4 | 2.0 | 7.0 | 0.00 | 0.00 | 0.00 | 53 | 1016.6 |
| 20260509191805 | 63 | 35 | 2.0 | 5.0 | 0.00 | 0.00 | 0.00 | 53 | 1016.7 |
| 20260509191304 | 64 | 44 | 2.0 | 6.0 | 0.00 | 0.00 | 0.00 | 52 | 1016.7 |
| 20260509190804 | 64 | 348 | 1.0 | 7.0 | 0.00 | 0.00 | 0.00 | 51 | 1016.7 |
| 20260509190305 | 65 | 28 | 2.0 | 6.0 | 0.00 | 0.00 | 0.00 | 51 | 1016.6 |
| 20260509185306 | 65 | 22 | 2.0 | 3.0 | 0.00 | 0.00 | 0.00 | 49 | 1016.6 |
| 20260509184804 | 65 | 32 | 1.0 | 3.0 | 0.00 | 0.00 | 0.00 | 49 | 1016.5 |
| 20260509184305 | 66 | 44 | 2.0 | 5.0 | 0.00 | 0.00 | 0.00 | 48 | 1016.5 |
| 20260509183804 | 66 | 37 | 2.0 | 5.0 | 0.00 | 0.00 | 0.00 | 48 | 1016.5 |
| 20260509182804 | 66 | 18 | 3.0 | 9.0 | 0.00 | 0.00 | 0.00 | 47 | 1016.4 |
| 20260509182306 | 67 | 17 | 3.0 | 7.0 | 0.00 | 0.00 | 0.00 | 47 | 1016.3 |
| 20260509181804 | 67 | 32 | 3.0 | 8.0 | 0.00 | 0.00 | 0.00 | 46 | 1016.3 |
| 20260509181304 | 67 | 66 | 2.0 | 9.0 | 0.00 | 0.00 | 0.00 | 46 | 1016.3 |
| 20260509180805 | 67 | 32 | 3.0 | 9.0 | 0.00 | 0.00 | 0.00 | 46 | 1016.3 |
| 20260509180304 | 67 | 63 | 3.0 | 6.0 | 0.00 | 0.00 | 0.00 | 46 | 1016.2 |
| 20260509175804 | 67 | 47 | 5.0 | 10.0 | 0.00 | 0.00 | 0.00 | 45 | 1016.3 |
| 20260509175306 | 67 | 66 | 2.0 | 6.0 | 0.00 | 0.00 | 0.00 | 47 | 1016.2 |